Weather in Kharlu

Russia / Republic of Karelia     61°48′31″N   30°56′17″E
temp.,
°C
wind,
m/s
gust,
m/s
humid.,
%
clouds,
%
prec.,
mm/h
press.,
hPa
HPBL,
m
5 august, thu
thu500:00+11wnw227337 0.0 101420
03:00+11n117477 0.0 101517
06:00+12ene1171100 0.0 101618
09:00+15e116181 0.0 1017212
12:00+19s114571 0.0 10171787
15:00+18ssw114772 0.0 10171106
18:00+18se124939 0.0 1017780
21:00+15sse006491 0.0 101810
6 august, fri
fri600:00+11ne227526 0.0 101820
03:00+10ne227940 0.0 101824
06:00+12ne247297 0.0 1018108
09:00+16ene3659100 0.0 1019351
12:00+20ene343765 0.0 10182306
15:00+20ene4639100 0.0 10172233
18:00+18ene2653100 0.0 1017777
21:00+14ne34695 0.0 101866
7 august, sat
sat700:00+11ene38781 0.0 1018148
03:00+11ene4137915 0.0 1017388
06:00+12ene5147889 0.0 1017656
09:00+15ene51365100 0.0 1016804
12:00+20e7105586 0.0 10151512
15:00+20e61061100 0.1 10141234
18:00+17e61271100 0.0 1014882
21:00+15e61483100 0.8 1013961
8 august, sun
sun800:00+15ene61487100 0.3 1012797
03:00+14ene61396100 4.6 1012782
06:00+13ene61396100 1.0 1011752
09:00+13ene51296100 1.7 1011712
12:00+14ene41196100 0.2 1012660
15:00+14ene41095100 0.5 1013625
18:00+14ene3995100 0.1 1013614
21:00+13ene4996100 0.4 1014508
9 august, mon
mon900:00+12ene3796100 0.1 1015380
03:00+12ene2596100 0.1 1015284
06:00+12ene2496100 0.0 1015220
09:00+13ene2490100 0.0 1016333
12:00+17ese227387 0.0 1016768
15:00+18ese126993 0.0 1016919
18:00+17e3576100 0.0 1016598
21:00+15e378665 0.0 1016279